• In Belarus
  • List of Countries
  • For 7 days
  • Water Temperature
  • Satellite Maps
  • Weather Map
  • Weather Widgets
  • user-avatar
    Login

    Hourly Weather Corfu

    Today, 21 September, Friday

    Time Temperature Precipitation Wind Pressure Humidity
    00:00 +24°C° 0 mm 1 mps 762 mmHg 68%
    01:00 +24°C° 0 mm 1 mps 762 mmHg 66%
    02:00 +23°C° 0 mm 1 mps 762 mmHg 65%
    03:00 +23°C° 0 mm 1 mps 762 mmHg 63%
    04:00 +23°C° 0 mm 2 mps 762 mmHg 62%
    05:00 +23°C° 0 mm 2 mps 762 mmHg 59%
    06:00 +24°C° 0 mm 2 mps 762 mmHg 55%
    07:00 +25°C° 0 mm 2 mps 762 mmHg 52%
    08:00 +27°C° 0 mm 2 mps 762 mmHg 46%
    09:00 +29°C° 0 mm 2 mps 762 mmHg 41%
    10:00 +31°C° 0 mm 2 mps 762 mmHg 35%
    11:00 +32°C° 0 mm 2 mps 762 mmHg 35%
    12:00 +32°C° 0 mm 2 mps 762 mmHg 35%
    13:00 +33°C° 0 mm 3 mps 762 mmHg 35%
    14:00 +33°C° 0 mm 3 mps 761 mmHg 40%
    15:00 +31°C° 0 mm 2 mps 761 mmHg 44%
    16:00 +30°C° 0 mm 2 mps 761 mmHg 48%
    17:00 +28°C° 0 mm 1 mps 761 mmHg 56%
    18:00 +27°C° 0 mm 1 mps 761 mmHg 65%
    19:00 +23°C° 0 mm 0 mps 762 mmHg 73%
    20:00 +23°C° 0 mm 0 mps 762 mmHg 75%
    21:00 +24°C° 0 mm 1 mps 762 mmHg 76%
    22:00 +24°C° 0 mm 1 mps 762 mmHg 77%
    23:00 +24°C° 0 mm 1 mps 762 mmHg 77%

    Tomorrow, 22 September, Saturday

    Time Temperature Precipitation Wind Pressure Humidity
    00:00 +23°C° 0 mm 1 mps 762 mmHg 77%
    01:00 +23°C° 0 mm 1 mps 762 mmHg 77%
    02:00 +23°C° 0 mm 1 mps 762 mmHg 77%
    03:00 +23°C° 0 mm 1 mps 762 mmHg 76%
    04:00 +22°C° 0 mm 1 mps 762 mmHg 76%
    05:00 +23°C° 0 mm 1 mps 762 mmHg 72%
    06:00 +24°C° 0 mm 1 mps 762 mmHg 68%
    07:00 +25°C° 0 mm 1 mps 763 mmHg 64%
    08:00 +27°C° 0 mm 1 mps 763 mmHg 58%
    09:00 +29°C° 0 mm 1 mps 763 mmHg 52%
    10:00 +31°C° 0 mm 1 mps 763 mmHg 46%
    11:00 +32°C° 0 mm 1 mps 763 mmHg 46%
    12:00 +32°C° 0 mm 2 mps 762 mmHg 45%
    13:00 +33°C° 0 mm 3 mps 762 mmHg 45%
    14:00 +33°C° 0 mm 3 mps 762 mmHg 48%
    15:00 +31°C° 0 mm 3 mps 762 mmHg 52%
    16:00 +30°C° 0 mm 3 mps 762 mmHg 55%
    17:00 +29°C° 0 mm 3 mps 762 mmHg 63%
    18:00 +27°C° 0 mm 2 mps 762 mmHg 70%
    19:00 +26°C° 0 mm 2 mps 763 mmHg 77%
    20:00 +25°C° 0 mm 2 mps 763 mmHg 78%
    21:00 +25°C° 0 mm 2 mps 763 mmHg 79%
    22:00 +25°C° 0 mm 2 mps 764 mmHg 80%
    23:00 +24°C° 0 mm 2 mps 764 mmHg 80%

    Day after tomorrow, 23 September, Sunday

    Time Temperature Precipitation Wind Pressure Humidity
    00:00 +24°C° 0 mm 2 mps 764 mmHg 80%
    01:00 +24°C° 0 mm 2 mps 764 mmHg 80%
    02:00 +24°C° 0 mm 2 mps 764 mmHg 79%
    03:00 +23°C° 0 mm 2 mps 764 mmHg 78%
    04:00 +23°C° 0 mm 2 mps 764 mmHg 77%
    05:00 +24°C° 0 mm 2 mps 764 mmHg 72%
    06:00 +25°C° 0 mm 2 mps 764 mmHg 68%
    07:00 +26°C° 0 mm 2 mps 764 mmHg 64%
    08:00 +28°C° 0 mm 2 mps 764 mmHg 56%
    09:00 +31°C° 0 mm 2 mps 765 mmHg 48%
    10:00 +34°C° 0 mm 2 mps 765 mmHg 39%
    11:00 +35°C° 0 mm 3 mps 765 mmHg 38%
    12:00 +35°C° 0 mm 3 mps 764 mmHg 37%
    13:00 +35°C° 0 mm 4 mps 764 mmHg 35%
    14:00 +35°C° 0 mm 4 mps 764 mmHg 38%
    15:00 +34°C° 0 mm 4 mps 764 mmHg 40%
    16:00 +34°C° 0 mm 4 mps 764 mmHg 43%
    17:00 +31°C° 0 mm 3 mps 764 mmHg 49%
    18:00 +29°C° 0 mm 3 mps 764 mmHg 55%
    19:00 +27°C° 0 mm 3 mps 765 mmHg 62%
    20:00 +27°C° 0 mm 2 mps 765 mmHg 62%
    21:00 +26°C° 0 mm 2 mps 765 mmHg 62%
    22:00 +26°C° 0 mm 2 mps 765 mmHg 62%
    23:00 +26°C° 0 mm 2 mps 765 mmHg 62%

    24 September, Monday

    Time Temperature Precipitation Wind Pressure Humidity
    00:00 +26°C° 0 mm 1 mps 765 mmHg 62%
    01:00 +25°C° 0 mm 1 mps 764 mmHg 62%
    02:00 +25°C° 0 mm 1 mps 764 mmHg 63%
    03:00 +25°C° 0 mm 1 mps 764 mmHg 63%
    04:00 +24°C° 0 mm 1 mps 764 mmHg 64%
    05:00 +25°C° 0 mm 1 mps 763 mmHg 62%
    06:00 +26°C° 0 mm 1 mps 763 mmHg 60%
    07:00 +27°C° 0 mm 1 mps 763 mmHg 58%
    08:00 +28°C° 0 mm 1 mps 763 mmHg 53%
    09:00 +30°C° 0 mm 2 mps 763 mmHg 48%
    10:00 +32°C° 0 mm 2 mps 763 mmHg 43%
    11:00 +32°C° 0 mm 2 mps 762 mmHg 42%
    12:00 +32°C° 0 mm 2 mps 762 mmHg 40%
    13:00 +34°C° 0 mm 3 mps 761 mmHg 38%
    14:00 +33°C° 0 mm 3 mps 761 mmHg 40%
    15:00 +32°C° 0 mm 2 mps 761 mmHg 43%
    16:00 +31°C° 0 mm 2 mps 760 mmHg 45%
    17:00 +29°C° 0 mm 2 mps 760 mmHg 53%
    18:00 +27°C° 0 mm 2 mps 760 mmHg 62%
    19:00 +25°C° 0 mm 2 mps 760 mmHg 70%
    20:00 +25°C° 0 mm 1 mps 760 mmHg 71%
    21:00 +24°C° 0 mm 1 mps 760 mmHg 73%
    22:00 +24°C° 0 mm 1 mps 760 mmHg 75%
    23:00 +24°C° 0 mm 1 mps 760 mmHg 74%

    25 September, Tuesday

    Time Temperature Precipitation Wind Pressure Humidity
    00:00 +23°C° 0 mm 1 mps 760 mmHg 73%
    01:00 +23°C° 0 mm 1 mps 760 mmHg 73%
    02:00 +23°C° 0 mm 1 mps 760 mmHg 71%
    03:00 +23°C° 0 mm 1 mps 760 mmHg 70%
    04:00 +21°C° 0 mm 2 mps 760 mmHg 69%
    05:00 +23°C° 0 mm 2 mps 761 mmHg 65%
    06:00 +24°C° 0 mm 2 mps 761 mmHg 61%
    07:00 +24°C° 0 mm 2 mps 761 mmHg 58%
    08:00 +26°C° 0 mm 2 mps 761 mmHg 51%
    09:00 +29°C° 0 mm 3 mps 762 mmHg 44%
    10:00 +31°C° 0 mm 3 mps 762 mmHg 37%
    11:00 +33°C° 0 mm 4 mps 762 mmHg 36%
    12:00 +33°C° 0 mm 6 mps 762 mmHg 34%
    13:00 +34°C° 0 mm 7 mps 762 mmHg 33%
    14:00 +33°C° 0 mm 8 mps 762 mmHg 34%
    15:00 +32°C° 0 mm 8 mps 762 mmHg 35%
    16:00 +32°C° 0 mm 9 mps 762 mmHg 36%
    17:00 +29°C° 0 mm 9 mps 762 mmHg 37%
    18:00 +27°C° 0 mm 8 mps 762 mmHg 38%
    19:00 +26°C° 0 mm 8 mps 763 mmHg 39%
    20:00 +24°C° 0 mm 7 mps 763 mmHg 37%
    21:00 +23°C° 0 mm 7 mps 763 mmHg 35%
    22:00 +22°C° 0 mm 6 mps 764 mmHg 32%
    23:00 +21°C° 0 mm 6 mps 764 mmHg 32%

    26 September, Wednesday

    Time Temperature Precipitation Wind Pressure Humidity
    00:00 +21°C° 0 mm 6 mps 764 mmHg 31%
    01:00 +20°C° 0 mm 6 mps 764 mmHg 30%
    02:00 +19°C° 0 mm 5 mps 764 mmHg 31%
    03:00 +17°C° 0 mm 5 mps 765 mmHg 31%
    04:00 +16°C° 0 mm 5 mps 765 mmHg 32%
    05:00 +17°C° 0 mm 4 mps 765 mmHg 31%
    06:00 +17°C° 0 mm 4 mps 765 mmHg 31%
    07:00 +17°C° 0 mm 4 mps 765 mmHg 31%
    08:00 +19°C° 0 mm 4 mps 766 mmHg 27%
    09:00 +21°C° 0 mm 4 mps 766 mmHg 22%
    10:00 +25°C° 0 mm 3 mps 766 mmHg 18%
    11:00 +26°C° 0 mm 4 mps 765 mmHg 16%
    12:00 +27°C° 0 mm 5 mps 765 mmHg 15%
    13:00 +28°C° 0 mm 5 mps 764 mmHg 14%
    14:00 +27°C° 0 mm 6 mps 764 mmHg 15%
    15:00 +27°C° 0 mm 7 mps 764 mmHg 17%
    16:00 +26°C° 0 mm 8 mps 763 mmHg 18%
    17:00 +23°C° 0 mm 8 mps 764 mmHg 21%
    18:00 +21°C° 0 mm 9 mps 764 mmHg 24%
    19:00 +18°C° 0 mm 9 mps 764 mmHg 28%
    20:00 +17°C° 0 mm 9 mps 764 mmHg 29%
    21:00 +16°C° 0 mm 8 mps 765 mmHg 30%
    22:00 +16°C° 0 mm 7 mps 765 mmHg 31%
    23:00 +15°C° 0 mm 7 mps 765 mmHg 35%
    Show more